RH
28 26 23 21 19 18 16 9 6 8 8 16 8 7 7 8 9 9 11 13 13 15 20 26 41 46 44 45 40 41 30 30 33 34 30 28 24 20 16 14 14 15 16 20 20
23 20 16 11 9 14 14 8 5 5 7 10 15 8 8 8 8 8 8 8 8 8 11 16 18 22 23 32 28 30 22 32 39 40 39 33 24 19 17 15 14 17 19 22 24
11 9 8 7 8 12 13 12 7 5 6 7 17 21 18 14 10 8 9 10 8 7 7 9 11 11 12 14 15 15 12 18 26 34 35 34 35 28 25 23 23 23 25 24 24
8 7 7 12 12 10 13 16 17 16 7 8 8 12 18 20 12 11 11 9 8 7 8 7 8 7 7 8 14 9 9 12 16 19 24 34 30 29 31 30 28 27 26 25 25
9 9 13 18 20 21 22 23 24 20 20 11 7 9 10 9 7 7 7 6 6 7 7 8 8 9 8 10 15 16 15 18 16 16 13 15 24 30 28 35 37 36 33 30 29
12 14 15 17 19 19 20 22 24 25 24 23 20 12 9 13 17 14 11 12 10 8 7 8 8 9 7 9 17 19 22 23 23 21 16 14 17 18 23 49 45 44 42 39 36
15 20 24 27 28 27 28 26 27 26 24 25 24 27 27 26 22 26 27 28 27 26 24 24 22 19 18 21 22 22 21 21 25 32 32 26 17 14 27 46 43 48 56 53 52
19 22 26 29 32 32 29 28 27 27 27 28 30 32 34 36 34 31 35 34 35 34 32 30 30 29 27 26 25 24 23 20 21 33 38 38 24 24 36 39 34 42 57 59 56
26 32 30 30 31 31 29 26 24 25 26 26 26 29 33 37 41 43 43 42 42 41 40 37 34 30 29 28 27 25 24 22 25 36 45 44 32 34 40 40 36 31 34 44 52
32 31 27 22 24 25 24 22 21 19 18 18 20 22 23 24 27 31 37 42 45 45 43 41 38 36 33 30 29 30 30 29 27 39 68 60 35 44 44 38 33 30 26 28 28
29 22 24 23 22 21 18 18 17 16 15 15 14 13 14 14 15 22 26 28 33 38 41 40 38 37 31 30 29 29 27 26 26 32 40 43 42 49 50 49 46 40 33 30 34
27 19 20 23 20 19 18 18 18 16 13 18 16 15 14 17 20 30 30 30 28 30 33 35 37 42 42 41 38 34 32 29 31 41 60 61 51 60 63 61 66 60 52 47 37
24 19 18 20 23 20 18 16 13 11 10 8 8 8 9 11 15 21 23 25 26 26 36 43 42 41 39 37 37 37 36 42 57 76 76 61 51 60 68 72 71 75 74 74 66
28 22 19 18 17 14 10 7 5 4 3 3 2 3 4 7 9 12 15 20 24 30 29 25 27 24 25 32 50 43 61 57 67 77 76 98 60 65 71 73 72 78 83 81 78
26 22 16 9 7 3 2 2 2 2 2 2 2 3 4 4 6 5 8 12 20 22 28 30 30 36 40 79 87 70 100 100 99 100 100 100 100 68 80 80 86 94 100 100 97
16 9 5 2 2 2 2 2 3 3 4 5 4 4 4 5 5 6 8 9 16 16 15 28 29 41 70 84 100 100 100 100 100 100 98 93 100 82 79 88 100 100 100 97 99
7 5 3 2 2 2 3 4 4 5 7 6 6 6 7 8 8 9 9 11 13 16 20 39 50 90 98 88 99 100 100 99 96 94 77 80 96 89 90 97 100 100 100 100 100
6 3 2 2 2 3 4 5 6 7 7 9 9 11 10 10 10 11 12 20 32 54 47 65 67 98 98 92 85 93 100 100 100 91 92 98 93 84 86 91 100 100 100 100 100
4 2 2 2 3 3 4 5 7 7 8 10 13 14 15 17 17 17 22 33 49 47 44 46 52 41 32 32 44 62 94 99 100 100 100 96 80 82 90 84 87 97 100 100 99
2 2 2 3 3 4 5 10 14 15 14 17 22 29 35 42 57 58 60 52 63 66 90 90 79 86 70 66 68 96 100 100 100 100 98 79 72 70 71 72 80 90 99 100 100
2 2 2 3 4 8 20 40 61 87 98 100 100 100 91 72 77 42 37 37 38 41 51 56 63 56 72 70 75 77 82 99 100 100 100 99 80 74 73 86 88 94 99 100 100
2 3 4 5 12 36 55 69 73 96 100 100 100 100 100 100 76 70 77 72 69 62 60 60 100 100 100 100 92 76 68 95 100 100 100 100 100 100 100 100 100 100 100 100 100
2 3 5 9 29 60 67 80 94 89 91 97 100 96 100 94 92 96 92 96 100 100 100 100 98 94 100 100 96 100 100 100 100 100 100 100 100 100 100 100 100 100 100 100 100
4 5 7 15 55 83 77 66 62 75 100 97 99 100 100 100 100 90 72 73 99 100 100 100 100 100 100 100 100 100 100 100 95 90 100 100 100 100 99 100 100 100 100 98 99
6 6 8 13 41 87 90 100 96 74 82 75 58 70 86 100 100 100 99 94 81 64 65 86 100 100 100 100 100 100 100 100 100 84 93 100 97 97 100 100 100 100 100 100 100
8 7 12 24 33 66 92 100 82 74 92 82 75 56 89 100 100 100 100 100 88 68 56 42 47 69 93 99 100 100 100 99 97 97 100 100 100 100 99 87 98 100 100 100 100
8 10 16 30 46 50 55 74 84 84 79 77 67 70 100 96 100 100 100 93 86 66 50 58 62 65 71 82 88 98 100 99 100 100 100 100 100 100 100 100 100 100 100 100 100
Wind_Speed
32 32 32 32 31 31 30 32 30 29 28 27 25 25 25 23 21 17 16 32 33 31 31 31 33 35 38 35 35 35 39 36 24 22 22 29 36 43 43 42 40 40 36 31 30
34 35 36 35 32 29 27 28 30 30 29 27 27 29 30 30 28 24 29 30 31 34 26 29 31 38 38 36 38 37 38 30 27 30 32 39 42 45 45 43 41 42 39 33 34
36 33 31 29 28 27 26 26 27 29 28 26 29 29 30 30 33 33 36 36 36 39 33 34 36 38 37 34 37 37 40 33 30 34 39 42 44 48 48 45 43 43 43 40 40
29 28 27 29 29 30 29 31 29 29 30 28 29 33 34 35 35 36 40 39 41 42 41 38 40 41 38 39 36 42 42 37 35 38 43 44 45 47 47 47 46 44 44 44 43
25 27 28 30 31 31 31 34 36 35 35 36 34 33 35 34 33 39 36 38 41 43 43 44 45 44 45 43 43 47 46 42 43 43 44 45 45 44 45 47 45 44 44 45 44
28 28 31 35 37 40 41 41 39 38 38 38 39 40 39 36 35 37 39 39 41 42 44 46 46 47 52 50 48 48 49 48 47 46 46 45 42 43 43 42 42 43 45 46 44
33 36 37 39 40 43 41 39 39 39 39 40 42 43 45 48 46 45 45 44 45 46 46 47 48 51 51 51 51 50 50 51 51 50 47 46 48 47 39 42 45 48 49 49 48
37 42 44 44 43 43 44 43 44 45 46 46 46 46 48 49 51 52 50 51 50 50 50 50 50 51 52 53 53 52 52 53 52 51 48 48 48 45 46 47 48 51 53 53 53
42 43 45 46 45 44 45 46 48 48 49 50 51 52 51 53 53 54 53 52 52 51 52 53 54 54 53 54 54 54 54 54 52 49 50 52 51 53 51 54 55 54 54 55 55
45 45 47 48 49 50 51 53 53 54 52 54 55 55 54 55 56 57 56 56 55 55 55 54 55 56 58 59 56 52 52 52 54 54 51 55 57 60 59 56 56 56 56 56 56
48 49 51 54 54 54 53 52 54 56 57 57 59 59 59 59 59 59 59 60 57 54 51 53 55 55 51 52 53 56 57 58 58 59 60 58 58 60 60 57 57 58 59 57 56
51 55 56 53 58 61 61 62 61 64 64 54 56 58 59 62 61 60 60 59 58 55 55 54 51 48 52 53 54 56 57 56 56 56 56 55 57 57 58 59 55 58 61 59 57
55 63 65 64 62 66 66 67 65 65 66 61 60 58 58 59 60 60 58 54 49 49 47 48 49 49 51 51 51 51 51 48 48 49 53 55 58 56 55 53 52 51 54 56 57
58 65 70 72 70 68 66 65 64 65 65 62 62 61 55 50 48 47 47 46 46 46 49 50 49 49 48 47 45 44 42 44 45 47 47 46 51 49 48 48 49 47 46 48 51
65 69 69 68 71 67 67 66 65 64 65 63 59 55 52 49 46 45 45 45 45 47 48 48 48 46 44 38 39 36 34 35 37 36 37 39 41 40 38 39 42 44 45 47 52
70 72 72 70 70 68 67 64 61 60 62 59 57 53 50 50 49 45 41 41 41 43 44 43 44 43 41 37 37 36 34 34 33 36 40 35 35 34 34 35 38 45 51 52 53
75 78 77 76 73 71 69 67 64 61 59 56 53 50 49 48 48 47 46 44 45 46 45 44 42 43 43 41 39 39 39 42 44 46 42 40 43 38 36 34 34 33 31 34 40
80 80 80 77 77 75 74 71 67 63 59 57 53 50 49 49 49 49 48 46 45 44 45 45 45 45 47 48 49 51 50 47 45 43 39 39 44 42 40 38 40 39 39 40 39
84 82 83 84 83 80 76 71 65 64 58 53 48 47 47 46 48 50 49 47 45 43 44 40 40 44 46 43 41 42 44 44 43 40 40 41 40 37 35 33 35 36 38 40 42
87 88 88 88 84 79 71 62 53 49 45 43 42 40 41 42 42 43 41 44 44 42 39 38 42 41 40 39 39 42 40 36 34 37 38 42 42 41 39 36 35 35 35 34 37
91 90 90 86 80 68 50 36 31 27 26 28 30 34 35 37 39 40 40 41 41 40 40 39 37 34 32 33 32 35 40 42 40 36 39 39 41 39 37 32 30 31 29 30 34
90 88 85 79 63 49 34 26 25 28 31 31 32 35 33 34 32 29 27 28 29 31 32 29 29 28 29 34 31 32 37 38 36 38 38 38 36 36 36 31 22 28 33 36 39
84 79 77 66 50 38 24 22 24 20 19 18 27 28 24 25 19 12 14 15 16 20 25 28 31 35 40 31 24 20 23 31 37 34 36 37 37 36 33 31 37 39 39 41 43
81 77 67 52 41 28 22 20 23 23 18 14 18 19 21 14 12 11 8 9 12 15 18 23 27 35 33 34 30 32 37 35 34 37 38 36 38 32 33 35 35 33 36 39 40
74 70 62 51 33 19 20 23 26 22 16 21 25 26 18 19 16 17 17 16 17 18 20 23 24 28 37 43 43 43 42 40 40 33 39 34 32 34 37 38 36 38 41 40 40
68 60 53 45 29 10 17 23 25 24 25 27 30 21 17 16 13 19 18 16 19 25 31 33 27 28 29 34 39 41 41 41 38 36 33 31 34 29 29 33 35 36 38 40 42
61 51 46 42 29 25 24 23 25 28 29 31 22 16 10 12 10 15 21 26 29 31 32 27 25 25 25 27 31 33 33 33 29 29 34 36 36 40 39 37 39 40 40 39 39
Wind_Direction
312 311 310 307 306 305 305 303 298 291 291 286 275 273 276 274 271 270 263 252 263 267 267 264 257 255 256 256 258 259 261 265 271 263 247 234 236 242 242 246 250 252 254 253 251
310 308 306 305 302 299 300 302 302 296 294 279 276 273 273 273 270 266 261 265 266 271 264 263 261 258 258 257 260 262 263 274 271 263 248 239 233 239 246 246 246 252 253 252 250
310 311 312 311 307 300 299 300 299 296 296 285 273 273 273 272 268 263 262 260 262 264 261 259 262 264 265 265 266 268 264 264 257 255 254 250 247 242 248 251 249 252 254 252 249
320 319 316 315 315 311 307 302 297 296 293 287 276 273 273 272 270 263 259 260 260 258 258 254 255 259 260 259 259 261 263 259 253 246 248 249 249 251 251 253 254 254 256 257 256
313 312 308 308 308 306 306 305 302 298 292 287 281 272 269 270 268 267 263 257 255 257 259 256 253 255 258 262 260 253 256 256 253 251 250 251 251 251 253 250 251 253 253 254 256
309 310 310 310 309 308 308 306 304 300 295 288 282 280 278 276 269 269 264 261 259 256 255 257 261 261 258 258 262 265 263 259 254 252 253 254 255 254 250 250 248 248 250 252 252
321 318 315 312 309 308 307 305 303 301 297 293 287 282 278 278 276 275 274 272 269 266 262 257 257 257 259 259 258 260 262 262 262 261 256 254 249 250 250 240 239 239 240 243 246
318 317 313 311 310 307 305 304 303 300 297 293 289 283 279 278 276 275 274 273 272 270 268 266 263 261 260 259 260 259 259 261 262 261 259 255 254 250 248 246 242 240 240 239 241
316 314 312 311 309 306 302 299 298 296 293 290 288 286 284 282 280 277 275 273 272 271 269 268 267 266 263 260 259 259 261 260 260 262 259 256 255 249 243 246 245 242 240 243 243
313 314 313 310 307 304 301 298 295 294 294 291 288 287 286 284 281 279 277 274 272 270 268 266 264 264 263 262 265 264 259 255 252 252 251 250 248 248 246 244 247 248 247 244 245
314 312 309 306 303 301 301 301 300 298 297 293 290 287 281 278 277 275 273 272 270 268 268 264 262 265 261 258 254 253 252 253 253 253 254 252 251 252 253 247 243 245 248 247 245
311 312 311 310 308 308 309 308 306 303 302 285 282 280 277 276 275 275 273 273 272 270 265 264 262 258 256 256 256 256 256 256 255 257 257 255 254 253 252 253 246 244 245 247 247
318 315 315 315 313 312 310 307 305 300 297 298 287 281 277 276 275 274 273 274 272 268 264 260 261 260 261 262 262 262 261 258 258 255 255 255 253 253 254 254 254 249 246 246 246
320 317 317 318 315 313 308 305 300 298 295 294 291 291 290 286 280 278 275 270 267 263 262 262 264 264 263 262 258 257 256 254 254 255 257 257 258 255 255 254 254 251 245 239 239
321 319 320 317 317 311 309 305 302 300 297 298 296 293 292 287 284 279 275 269 264 261 259 260 260 261 260 255 253 252 247 248 248 252 252 254 256 254 255 254 253 251 244 233 230
324 323 322 318 313 311 308 304 302 298 295 295 292 291 287 285 283 280 275 270 264 260 258 255 256 256 252 253 254 250 245 242 241 243 243 247 253 252 250 249 246 244 245 244 240
326 324 321 318 314 312 309 305 301 297 295 291 288 284 281 280 278 275 272 268 264 264 262 259 255 249 244 245 243 244 248 252 252 249 251 250 250 248 248 250 248 238 239 240 239
327 323 319 316 314 311 308 304 301 296 291 288 284 280 275 272 269 268 267 265 263 262 260 254 250 244 243 249 252 252 251 255 258 258 256 254 257 251 248 251 250 242 236 235 234
326 322 319 318 315 312 309 304 298 295 290 284 278 274 270 264 260 260 260 260 260 259 259 262 260 256 253 252 250 250 248 252 256 258 258 253 251 250 250 250 251 252 250 249 248
325 324 322 318 316 313 310 305 299 294 288 283 277 269 263 260 256 254 254 255 256 257 257 247 246 250 259 255 246 240 237 240 242 251 254 253 252 252 254 255 253 253 253 251 247
326 325 322 321 319 317 315 305 296 294 288 285 279 275 274 271 263 269 265 261 258 257 255 255 257 259 262 252 248 243 241 238 239 238 246 250 252 253 256 257 255 253 251 242 234
329 327 326 325 325 329 328 306 283 276 275 277 279 279 284 284 285 282 277 270 265 264 260 248 225 222 231 240 248 250 243 233 233 236 237 242 245 245 250 257 231 219 219 220 217
332 332 331 331 331 344 358 351 340 340 323 301 286 289 293 299 305 300 289 280 271 260 255 250 248 233 237 252 228 205 210 211 216 218 227 232 232 235 236 235 230 239 241 240 241
337 338 340 338 338 352 8 11 4 348 347 331 317 293 298 283 277 293 318 308 282 273 263 254 247 238 234 214 210 201 208 217 219 229 230 233 236 244 243 241 242 241 242 243 244
342 344 348 351 345 341 347 353 343 342 340 331 333 308 283 285 275 275 278 290 296 294 290 275 259 248 237 227 222 225 230 234 243 245 233 239 245 237 236 234 238 239 235 234 238
344 349 354 359 356 19 1 353 342 338 334 321 329 326 287 315 267 298 270 276 295 293 297 296 274 255 248 243 240 240 240 240 241 233 226 227 229 233 243 242 238 238 241 243 245
346 351 356 358 1 342 338 329 333 335 334 331 328 336 332 306 296 279 271 287 292 292 290 284 272 256 249 246 243 240 238 236 226 225 232 230 228 234 240 240 239 246 250 251 253